Flag for United Kingdom Weather past 2 weeks in St. Peter Port, Guernsey, United Kingdom

Now
50 °F

Partly sunny.


Feels Like: 43 °F
Forecast: 49 / 53 °F
Wind: 21 mph from Southwest

Location: Guernsey Airport

Current Time: Dec 21, 2014 at 8:42:17 AM

Latest Report: Dec 21, 2014 at 8:20 AM


Visibility: N/A

Pressure: 30.51 "Hg

Humidity: 82%

Dew point: 45 °F

Location of St. Peter PortLocation

Historic Weather in St. Peter Port — Graph

°F

St. Peter Port temperature yesterday

Maximum temperature yesterday: 50 °F (at 5:50 AM)
Minimum temperature yesterday: 48 °F (at 3:50 AM)
Average temperature yesterday: 49 °F

Past Weeks' High & Low Weather Summary

 TemperatureHumidityPressure
High54 °F (Dec 12, 6:20 AM)100% (Dec 7, 4:20 AM)30.54 "Hg (Dec 7, 4:20 AM)
Low39 °F (Dec 14, 4:20 AM)62% (Dec 6, 9:50 AM)29.45 "Hg (Dec 12, 6:50 AM)
Average49 °F84%30.09 "Hg
* Reported Dec 6 7:20 AM — Dec 21 7:20 AM, St. Peter Port, Weather by CustomWeather, © 2014

Note: Actual official high and low records may vary slightly from our data, if they occured in-between our weather recording intervals... More about our weather records

Advertising

St. Peter Port weather history for previous 24 hours

 ConditionsComfort  
Time TempWeatherWind HumidityBarometerVisibility
7:20 AM
Dec 21
50 °FPassing clouds.20 mph82%30.51 "HgN/A
6:50 AM50 °FPassing clouds.22 mph76%30.48 "HgN/A
6:20 AM50 °FPartly cloudy.21 mph82%30.48 "HgN/A
5:50 AM50 °FOvercast.17 mph82%30.48 "HgN/A
5:20 AM50 °FPassing clouds.17 mph82%30.51 "HgN/A
4:50 AM50 °FPassing clouds.14 mph82%30.51 "HgN/A
4:20 AM48 °FPassing clouds.13 mph87%30.51 "HgN/A
3:50 AM48 °FPartly cloudy.14 mph87%30.51 "HgN/A
8:50 PM
Dec 20
50 °FPassing clouds.12 mph71%30.54 "HgN/A
8:20 PM48 °FPassing clouds.12 mph76%30.54 "HgN/A
7:50 PM48 °FPassing clouds.10 mph76%30.54 "HgN/A
7:20 PM50 °FScattered showers. Passing clouds.13 mph71%30.54 "HgN/A
6:50 PM50 °FScattered showers. Passing clouds.9 mph76%30.54 "HgN/A
6:20 PM50 °FPassing clouds.9 mph71%30.51 "HgN/A
5:50 PM50 °FScattered showers. Passing clouds.12 mph71%30.51 "HgN/A
5:20 PM50 °FScattered showers. Passing clouds.13 mph71%30.51 "HgN/A
4:50 PM50 °FScattered showers. Passing clouds.13 mph71%30.51 "HgN/A
4:20 PM50 °FScattered showers. Passing clouds.10 mph71%30.51 "HgN/A
3:50 PM50 °FScattered showers. Partly sunny.14 mph71%30.48 "HgN/A
3:20 PM50 °FScattered showers. Partly sunny.13 mph71%30.48 "HgN/A
2:50 PM50 °FScattered showers. Partly sunny.16 mph76%30.48 "HgN/A
2:20 PM48 °FScattered showers. Broken clouds.16 mph82%30.48 "HgN/A
1:50 PM50 °FSprinkles. Broken clouds.16 mph76%30.48 "HgN/A
1:20 PM50 °FScattered showers. Partly sunny.15 mph76%30.48 "HgN/A
12:50 PM50 °FScattered showers. Partly sunny.14 mph76%30.48 "HgN/A
12:20 PM50 °FScattered showers. Partly sunny.15 mph82%30.48 "HgN/A
11:20 AM50 °FScattered clouds.17 mph82%30.45 "HgN/A
10:50 AM48 °FPartly sunny.14 mph87%30.48 "HgN/A
10:20 AM48 °FScattered showers. Broken clouds.14 mph87%30.45 "HgN/A
9:50 AM48 °FScattered clouds.15 mph82%30.45 "HgN/A
9:20 AM48 °FBroken clouds.17 mph82%30.45 "HgN/A
8:50 AM48 °FScattered clouds.14 mph76%30.42 "HgN/A
8:20 AM48 °FPartly sunny.16 mph76%30.42 "HgN/A
Weather by CustomWeather, © 2014

See weather overviewHow to use our weather pages